This demonstration page uses our WeatherBlox Daily Observations layout. Learn more.

Left ArrowRight Arrow

39.92423, -83.80882

Hourly Observations for November 15, 2018

Temp ( °F °C ) Dew Point ( °F °C ) Humidity (%) Winds ( mph kmh ) Pressure ( in mb ) Visibility ( mi km ) Precip ( " mm )
12:56 am 00:56 Cloudy with Light Snow 29 -1.7 25 -3.9 85 85 ENE 14 22 30.33 1027 7 11 N/A
1:56 am 01:56 Cloudy with Light Snow 29 -1.7 26 -3.3 89 89 E 14 22 30.31 1026 8 13 N/A
2:56 am 02:56 Cloudy with Light Snow 30 -1.1 28 -2.2 92 92 ENE 16 26 30.24 1024 5 8 N/A
3:56 am 03:56 Cloudy with Light Snow 30 -1.1 29 -1.7 96 96 E 12 19 30.23 1024 3 5 0.01 0.25
4:03 am 04:03 Cloudy with Light Snow 30 -1 28 -2 93 93 E 12 19 30.27 1025 3 5 N/A
4:12 am 04:12 Cloudy with Light Snow 30 -1 30 -1 100 100 E 10 17 30.27 1025 3 5 N/A
4:56 am 04:56 Cloudy with Light Snow 31 -0.6 30 -1.1 96 96 E 17 28 30.21 1023 3 5 N/A
5:56 am 05:56 Cloudy with Light Snow 31 -0.6 31 -0.6 100 100 E 16 26 30.17 1022 4 6 0.01 0.25
6:56 am 06:56 Cloudy with Light Wintry Mix 32 undefined 31 -0.6 96 96 ESE 20 31 30.16 1021 6 10 N/A
7:56 am 07:56 Cloudy with Light Wintry Mix 32 undefined 32 undefined 100 100 ESE 14 22 30.14 1021 7 11 0.01 0.25
8:56 am 08:56 Cloudy with Light Snow 32 undefined 32 undefined 100 100 ESE 13 20 30.12 1020 6 10 0.01 0.25
9:56 am 09:56 Cloudy with Light Snow 32 undefined 32 undefined 100 100 ESE 10 17 30.10 1019 6 10 0.01 0.25
10:56 am 10:56 Cloudy with Light Wintry Mix 33 0.6 33 0.6 100 100 ESE 10 17 30.09 1019 5 8 0.02 0.51
11:56 am 11:56 Cloudy with Light Wintry Mix 33 0.6 33 0.6 100 100 ESE 9 15 30.07 1018 5 8 0.02 0.51
12:34 pm 12:34 Cloudy with Light Snow N/A N/A N/A SE 5 7 N/A 2 3 0.02 0.51
12:52 pm 12:52 Cloudy with Light Snow N/A N/A N/A ESE 7 11 N/A 2 3 0.03 0.76
12:56 pm 12:56 Cloudy with Light Snow N/A N/A N/A ESE 7 11 N/A 3 4 0.03 0.76
1:03 pm 13:03 Cloudy with Light Snow N/A N/A N/A ESE 8 13 N/A 6 10 N/A
1:56 pm 13:56 Cloudy with Light Snow 33 0.6 33 0.6 100 100 SE 7 11 30.00 1016 4 6 0.04 1.02
2:02 pm 14:02 Cloudy with Light Snow 34 1 34 1 100 100 SE 7 11 30.03 1017 2 3 N/A
2:23 pm 14:23 Cloudy with Light Snow 34 1 34 1 100 100 SE 5 7 30.00 1016 3 5 0.01 0.25
2:41 pm 14:41 Cloudy with Light Wintry Mix 34 1 34 1 100 100 SSE 3 6 30.00 1016 5 8 0.02 0.51
2:56 pm 14:56 Cloudy with Mist and Fog 33 0.6 33 0.6 100 100 N N/A 29.98 1015 5 8 0.03 0.76
3:40 pm 15:40 Cloudy with Light Snow 34 1 34 1 100 100 N N/A 30.00 1016 2 3 0.03 0.76
3:56 pm 15:56 Cloudy with Light Snow 33 0.6 33 0.6 100 100 N N/A 29.97 1015 2 3 0.04 1.02
4:07 pm 16:07 Cloudy with Light Snow 32 undefined 32 undefined 100 100 N N/A 30.00 1016 1 2 0.01 0.25
4:12 pm 16:12 Cloudy with Light Snow 32 undefined 32 undefined 100 100 N N/A 30.00 1016 1 1 0.01 0.25
4:24 pm 16:24 Cloudy with Light Snow 32 undefined 32 undefined 100 100 N N/A 30.00 1016 1 2 0.02 0.51
4:34 pm 16:34 Cloudy with Light Snow 32 undefined 32 undefined 100 100 N N/A 30.00 1016 1 2 0.03 0.76
4:43 pm 16:43 Cloudy with Light Snow 32 undefined 32 undefined 100 100 N N/A 30.00 1016 1 2 0.03 0.76
4:56 pm 16:56 Cloudy with Light Snow 32 undefined 32 undefined 100 100 N N/A 29.97 1015 1 1 0.04 1.02
5:22 pm 17:22 Cloudy with Light Snow 32 undefined 32 undefined 100 100 WSW 3 6 30.00 1016 1 2 0.03 0.76
5:32 pm 17:32 Cloudy with Light Snow 32 undefined 32 undefined 100 100 WSW 5 7 30.00 1016 2 2 0.04 1.02
5:43 pm 17:43 Cloudy with Light Wintry Mix 32 undefined 32 undefined 100 100 WSW 5 7 30.00 1016 3 5 0.05 1.27
5:56 pm 17:56 Cloudy with Light Wintry Mix 32 undefined 32 undefined 100 100 WSW 5 7 29.96 1015 4 6 0.06 1.52
6:34 pm 18:34 Cloudy with Light Snow 32 undefined 32 undefined 100 100 W 5 7 30.00 1016 2 2 0.05 1.27
6:56 pm 18:56 Cloudy with Light Snow 32 undefined 32 undefined 100 100 WSW 5 7 29.97 1015 2 3 0.07 1.78
7:05 pm 19:05 Cloudy with Light Snow 32 undefined 32 undefined 100 100 WSW 7 11 30.00 1016 2 3 0.01 0.25
7:56 pm 19:56 Cloudy with Light Snow N/A N/A N/A W 9 15 N/A 7 11 0.07 1.78
8:44 pm 20:44 Cloudy N/A N/A N/A WSW 8 13 N/A 9 14 0.05 1.27
8:56 pm 20:56 Cloudy N/A N/A N/A WSW 10 17 N/A 10 16 0.06 1.52
9:03 pm 21:03 Cloudy N/A N/A N/A WSW 8 13 N/A 10 16 0.01 0.25
9:56 pm 21:56 Cloudy N/A N/A N/A WSW 7 11 N/A 7 11 0.06 1.52
10:12 pm 22:12 Cloudy N/A N/A N/A WSW 9 15 N/A 7 11 0.01 0.25
10:48 pm 22:48 Cloudy with Haze N/A N/A N/A WSW 8 13 N/A 6 10 0.05 1.27
10:56 pm 22:56 Cloudy with Light Snow 32 undefined 32 undefined 100 100 WSW 9 15 29.98 1015 5 8 0.06 1.52
11:35 pm 23:35 Cloudy with Light Wintry Mix 32 undefined 32 undefined 100 100 WSW 10 17 30.00 1016 8 13 0.03 0.76
11:54 pm 23:54 Cloudy with Mist and Fog 32 undefined 32 undefined 100 100 WSW 15 24 30.00 1016 5 8 0.05 1.27
11:56 pm 23:56 Cloudy with Mist and Fog 32 undefined 32 undefined 100 100 WSW 15 24 29.98 1015 6 10 0.05 1.27

Powered by AerisWeather